When you browse on this site, cookies collect data to enhance your experience and personalize the content and advertising you see.
Visit our Privacy Policy to learn more. By continuing to use the site, you agree to this use of cookies and data.

Tiempo cada hora Encamp

Hoy, 2 Julio, Jueves

Tiempo Temperatura Precipitaciones Viento Presión Humedad
00:00 +13°C° 0 mm 0 mps 625 mmHg 87%
01:00 +12°C° 0.1 mm 0 mps 624 mmHg 88%
02:00 +12°C° 0.1 mm 0 mps 624 mmHg 89%
03:00 +12°C° 0.1 mm 0 mps 624 mmHg 90%
04:00 +12°C° 0.4 mm 0 mps 624 mmHg 90%
05:00 +13°C° 0.4 mm 0 mps 624 mmHg 89%
06:00 +14°C° 0.4 mm 1 mps 625 mmHg 89%
07:00 +16°C° 0.4 mm 1 mps 625 mmHg 85%
08:00 +18°C° 0.4 mm 1 mps 626 mmHg 81%
09:00 +18°C° 0.4 mm 2 mps 627 mmHg 77%
10:00 +18°C° 0.9 mm 2 mps 627 mmHg 78%
11:00 +18°C° 0.9 mm 2 mps 627 mmHg 79%
12:00 +18°C° 0.9 mm 2 mps 627 mmHg 80%
13:00 +18°C° 0.8 mm 2 mps 626 mmHg 80%
14:00 +17°C° 0.8 mm 2 mps 626 mmHg 80%
15:00 +17°C° 0.8 mm 2 mps 626 mmHg 81%
16:00 +16°C° 0.4 mm 2 mps 626 mmHg 83%
17:00 +15°C° 0.4 mm 2 mps 626 mmHg 86%
18:00 +15°C° 0.4 mm 1 mps 625 mmHg 88%
19:00 +14°C° 0.2 mm 2 mps 625 mmHg 91%
20:00 +13°C° 0.2 mm 2 mps 626 mmHg 93%
21:00 +12°C° 0.2 mm 2 mps 626 mmHg 95%
22:00 +10°C° 0.2 mm 2 mps 626 mmHg 96%
23:00 +10°C° 0.2 mm 2 mps 625 mmHg 96%

Mañana, 3 Julio, Viernes

Tiempo Temperatura Precipitaciones Viento Presión Humedad
00:00 +9°C° 0.2 mm 2 mps 625 mmHg 96%
01:00 +9°C° 0.2 mm 2 mps 625 mmHg 96%
02:00 +9°C° 0.2 mm 2 mps 625 mmHg 96%
03:00 +9°C° 0.2 mm 2 mps 625 mmHg 96%
04:00 +9°C° 0 mm 2 mps 626 mmHg 95%
05:00 +9°C° 0 mm 2 mps 626 mmHg 94%
06:00 +9°C° 0 mm 2 mps 626 mmHg 93%
07:00 +10°C° 0 mm 2 mps 626 mmHg 89%
08:00 +12°C° 0 mm 2 mps 627 mmHg 84%
09:00 +12°C° 0 mm 2 mps 627 mmHg 80%
10:00 +14°C° 0 mm 2 mps 628 mmHg 71%
11:00 +15°C° 0 mm 2 mps 628 mmHg 62%
12:00 +17°C° 0 mm 2 mps 629 mmHg 54%
13:00 +17°C° 0 mm 2 mps 629 mmHg 51%
14:00 +18°C° 0 mm 2 mps 629 mmHg 48%
15:00 +18°C° 0 mm 2 mps 629 mmHg 46%
16:00 +17°C° 0 mm 2 mps 628 mmHg 52%
17:00 +16°C° 0 mm 2 mps 628 mmHg 59%
18:00 +15°C° 0 mm 2 mps 628 mmHg 66%
19:00 +13°C° 0 mm 2 mps 627 mmHg 73%
20:00 +10°C° 0 mm 2 mps 627 mmHg 81%
21:00 +8°C° 0 mm 2 mps 627 mmHg 88%
22:00 +8°C° 0 mm 2 mps 627 mmHg 85%
23:00 +7°C° 0 mm 2 mps 627 mmHg 81%

Pasado mañana, 4 Julio, Sábado

Tiempo Temperatura Precipitaciones Viento Presión Humedad
00:00 +8°C° 0 mm 1 mps 627 mmHg 78%
01:00 +8°C° 0 mm 1 mps 626 mmHg 73%
02:00 +8°C° 0 mm 1 mps 626 mmHg 69%
03:00 +8°C° 0 mm 1 mps 626 mmHg 65%
04:00 +9°C° 0 mm 1 mps 627 mmHg 61%
05:00 +10°C° 0 mm 1 mps 627 mmHg 57%
06:00 +11°C° 0 mm 1 mps 628 mmHg 54%
07:00 +14°C° 0 mm 1 mps 629 mmHg 47%
08:00 +16°C° 0 mm 1 mps 630 mmHg 41%
09:00 +20°C° 0 mm 1 mps 631 mmHg 35%
10:00 +21°C° 0 mm 1 mps 631 mmHg 36%
11:00 +22°C° 0 mm 1 mps 631 mmHg 37%
12:00 +21°C° 0 mm 2 mps 631 mmHg 38%
13:00 +21°C° 0 mm 2 mps 631 mmHg 40%
14:00 +23°C° 0 mm 2 mps 631 mmHg 42%
15:00 +23°C° 0 mm 2 mps 631 mmHg 44%
16:00 +21°C° 0 mm 2 mps 630 mmHg 51%
17:00 +20°C° 0 mm 1 mps 630 mmHg 59%
18:00 +19°C° 0 mm 1 mps 629 mmHg 66%
19:00 +16°C° 0 mm 1 mps 629 mmHg 73%
20:00 +14°C° 0 mm 1 mps 628 mmHg 81%
21:00 +12°C° 0 mm 1 mps 628 mmHg 88%
22:00 +12°C° 0 mm 1 mps 628 mmHg 83%
23:00 +11°C° 0 mm 1 mps 628 mmHg 79%

5 Julio, Domingo

Tiempo Temperatura Precipitaciones Viento Presión Humedad
00:00 +11°C° 0 mm 1 mps 628 mmHg 74%
01:00 +10°C° 0 mm 2 mps 628 mmHg 69%
02:00 +10°C° 0 mm 2 mps 628 mmHg 63%
03:00 +10°C° 0 mm 2 mps 627 mmHg 58%
04:00 +12°C° 0 mm 2 mps 628 mmHg 58%
05:00 +13°C° 0 mm 1 mps 628 mmHg 58%
06:00 +14°C° 0 mm 1 mps 629 mmHg 58%
07:00 +16°C° 0 mm 1 mps 630 mmHg 53%
08:00 +19°C° 0 mm 1 mps 631 mmHg 48%
09:00 +22°C° 0 mm 1 mps 632 mmHg 43%
10:00 +23°C° 0 mm 1 mps 632 mmHg 43%
11:00 +24°C° 0 mm 1 mps 632 mmHg 42%
12:00 +24°C° 0 mm 2 mps 632 mmHg 42%
13:00 +24°C° 0 mm 2 mps 631 mmHg 43%
14:00 +24°C° 0 mm 2 mps 631 mmHg 44%
15:00 +24°C° 0 mm 2 mps 631 mmHg 45%
16:00 +23°C° 0 mm 2 mps 630 mmHg 52%
17:00 +21°C° 0 mm 2 mps 629 mmHg 59%
18:00 +20°C° 0 mm 2 mps 629 mmHg 66%
19:00 +19°C° 0 mm 1 mps 628 mmHg 72%
20:00 +15°C° 0 mm 1 mps 628 mmHg 77%
21:00 +13°C° 0 mm 1 mps 627 mmHg 83%
22:00 +13°C° 0 mm 1 mps 627 mmHg 79%
23:00 +13°C° 0 mm 1 mps 626 mmHg 75%

6 Julio, Lunes

Tiempo Temperatura Precipitaciones Viento Presión Humedad
00:00 +12°C° 0 mm 2 mps 626 mmHg 71%
01:00 +12°C° 0 mm 2 mps 626 mmHg 68%
02:00 +12°C° 0 mm 1 mps 626 mmHg 64%
03:00 +12°C° 0 mm 1 mps 625 mmHg 61%
04:00 +13°C° 0 mm 1 mps 626 mmHg 61%
05:00 +14°C° 0 mm 1 mps 626 mmHg 61%
06:00 +14°C° 0 mm 1 mps 626 mmHg 61%
07:00 +18°C° 0 mm 1 mps 627 mmHg 56%
08:00 +20°C° 0 mm 1 mps 628 mmHg 51%
09:00 +22°C° 0 mm 1 mps 629 mmHg 46%
10:00 +23°C° 0 mm 1 mps 629 mmHg 46%
11:00 +24°C° 0 mm 1 mps 629 mmHg 46%
12:00 +24°C° 0 mm 2 mps 629 mmHg 45%
13:00 +24°C° 0 mm 2 mps 629 mmHg 49%
14:00 +24°C° 0 mm 2 mps 629 mmHg 52%
15:00 +23°C° 0 mm 2 mps 628 mmHg 56%
16:00 +20°C° 0.1 mm 2 mps 627 mmHg 64%
17:00 +18°C° 0.1 mm 2 mps 627 mmHg 72%
18:00 +17°C° 0.1 mm 2 mps 626 mmHg 81%
19:00 +15°C° 0 mm 2 mps 626 mmHg 84%
20:00 +14°C° 0 mm 2 mps 625 mmHg 88%
21:00 +12°C° 0 mm 2 mps 625 mmHg 91%
22:00 +12°C° 0 mm 2 mps 625 mmHg 91%
23:00 +10°C° 0 mm 2 mps 625 mmHg 90%

7 Julio, Martes

Tiempo Temperatura Precipitaciones Viento Presión Humedad
00:00 +10°C° 0 mm 2 mps 625 mmHg 90%
01:00 +9°C° 0 mm 2 mps 624 mmHg 90%
02:00 +9°C° 0 mm 2 mps 624 mmHg 90%
03:00 +8°C° 0 mm 3 mps 624 mmHg 90%
04:00 +9°C° 0 mm 3 mps 624 mmHg 89%
05:00 +9°C° 0 mm 3 mps 624 mmHg 88%
06:00 +10°C° 0 mm 3 mps 624 mmHg 86%
07:00 +13°C° 0 mm 2 mps 625 mmHg 74%
08:00 +15°C° 0 mm 2 mps 626 mmHg 62%
09:00 +17°C° 0 mm 2 mps 627 mmHg 51%
10:00 +18°C° 0 mm 2 mps 627 mmHg 45%
11:00 +19°C° 0 mm 2 mps 627 mmHg 40%
12:00 +20°C° 0 mm 2 mps 628 mmHg 35%
13:00 +20°C° 0 mm 2 mps 627 mmHg 36%
14:00 +20°C° 0 mm 2 mps 627 mmHg 37%
15:00 +20°C° 0 mm 2 mps 627 mmHg 38%
16:00 +19°C° 0 mm 2 mps 627 mmHg 46%
17:00 +18°C° 0 mm 2 mps 626 mmHg 54%
18:00 +16°C° 0 mm 2 mps 625 mmHg 61%
19:00 +14°C° 0 mm 2 mps 625 mmHg 67%
20:00 +12°C° 0 mm 2 mps 625 mmHg 72%
21:00 +10°C° 0 mm 1 mps 624 mmHg 78%
22:00 +10°C° 0 mm 1 mps 624 mmHg 70%
23:00 +10°C° 0 mm 1 mps 624 mmHg 63%
Mostrar más